This demonstration page uses our WeatherBlox Daily Observations layout. Learn more.

40.92945, -100.16068

Hourly Observations for June 13, 2019

Temp ( °F °C ) Dew Point ( °F °C ) Humidity (%) Winds ( mph kmh ) Pressure ( in mb ) Visibility ( mi km ) Precip ( " mm )
12:15 am 00:15 Clear 52 10.9 46 7.6 80 80 S 3 6 30.09 1019 10 16.09344 0 0
12:35 am 00:35 Clear 51 10.7 45 7 78 78 SSW 3 6 30.12 1020 10 16.09344 0 0
12:55 am 00:55 Clear 52 11.1 45 7.2 77 77 S 5 7 30.09 1019 10 16.09344 0 0
1:15 am 01:15 Clear 51 10.4 44 6.7 78 78 S 3 6 30.12 1020 10 16.09344 0 0
1:35 am 01:35 Clear 51 10.4 44 6.7 78 78 S 3 6 30.12 1020 10 16.09344 0 0
1:55 am 01:55 Clear 53 11.6 44 6.6 72 72 S 5 7 30.09 1019 10 16.09344 0 0
2:15 am 02:15 Clear 50 10 43 6.3 78 78 SSW 6 9 30.12 1020 10 16.09344 0 0
2:35 am 02:35 Clear 48 8.8 44 6.7 87 87 Calm 30.12 1020 10 16.09344 0 0
2:55 am 02:55 Clear 47 8.4 43 6.1 86 86 Calm 30.12 1020 10 16.09344 0 0
3:15 am 03:15 Clear 48 8.7 43 6 83 83 Calm 30.12 1020 10 16.09344 0 0
3:35 am 03:35 Clear 52 10.9 43 6.1 72 72 SW 5 7 30.09 1019 10 16.09344 0 0
3:55 am 03:55 Clear 52 11.1 43 5.9 71 71 SSW 5 7 30.09 1019 10 16.09344 0 0
4:15 am 04:15 Clear 51 10.6 42 5.7 72 72 Calm 30.12 1020 10 16.09344 0 0
4:35 am 04:35 Clear 46 7.6 42 5.5 87 87 Calm 30.09 1019 10 16.09344 0 0
4:55 am 04:55 Clear 51 10.3 42 5.5 72 72 Calm 30.09 1019 10 16.09344 0 0
5:15 am 05:15 Clear 52 11.3 42 5.6 68 68 Calm 30.06 1018 10 16.09344 0 0
5:35 am 05:35 Clear 53 11.8 42 5.5 66 66 SW 3 6 30.06 1018 10 16.09344 0 0
5:55 am 05:55 Clear 52 10.9 42 5.5 70 70 SW 5 7 30.06 1018 10 16.09344 0 0
6:15 am 06:15 Sunny 51 10.8 43 6 72 72 W 3 6 30.12 1020 10 16.09344 0 0
6:35 am 06:35 Sunny 51 10.6 43 6.2 74 74 WSW 3 6 30.12 1020 10 16.09344 0 0
6:55 am 06:55 Partly Cloudy 52 11.3 43 6.2 71 71 WSW 3 6 30.09 1019 10 16.09344 0 0
7:15 am 07:15 Partly Cloudy 52 11.2 45 7.1 76 76 Calm 30.09 1019 10 16.09344 0 0
7:35 am 07:35 Partly Cloudy 55 13 48 8.9 76 76 WSW 3 6 30.09 1019 10 16.09344 0 0
7:55 am 07:55 Partly Cloudy 55 12.7 47 8.1 74 74 Calm 30.09 1019 10 16.09344 0 0
8:15 am 08:15 Sunny 59 15.2 49 9.5 69 69 SW 3 6 30.03 1017 10 16.09344 0 0
8:35 am 08:35 Sunny 60 15.8 49 9.2 65 65 SW 10 17 30.03 1017 10 16.09344 0 0
8:55 am 08:55 Partly Cloudy 63 17.1 49 9.7 62 62 SSW 10 17 30 1016 10 16.09344 0 0
9:15 am 09:15 Mostly Cloudy 64 17.7 49 9.6 59 59 SW 9 15 30 1016 10 16.09344 0 0
9:35 am 09:35 Partly Cloudy 65 18.4 50 9.9 58 58 SW 14 22 30 1016 10 16.09344 0 0
9:55 am 09:55 Sunny 66 19 50 10 56 56 SW 15 24 30 1016 10 16.09344 0 0
10:15 am 10:15 Sunny 67 19.5 51 10.8 57 57 SSW 15 24 30 1016 10 16.09344 0 0
10:35 am 10:35 Sunny 69 20.3 52 11.3 56 56 SSW 13 20 29.94 1014 10 16.09344 0 0
10:55 am 10:55 Sunny 70 20.9 53 11.7 56 56 SSW 14 22 29.94 1014 10 16.09344 0 0
11:15 am 11:15 Partly Cloudy 70 21.3 54 12.2 56 56 SSW 12 19 29.94 1014 10 16.09344 0 0
11:35 am 11:35 Partly Cloudy 71 21.9 54 12.2 54 54 SSW 14 22 29.94 1014 10 16.09344 0 0
11:55 am 11:55 Partly Cloudy 73 22.8 54 12.2 51 51 SSW 15 24 29.94 1014 10 16.09344 0 0
12:15 pm 12:15 Sunny 74 23.2 53 11.8 49 49 SSW 17 28 29.94 1014 10 16.09344 0 0
12:35 pm 12:35 Sunny 75 24 55 12.5 49 49 S 15 24 29.91 1013 10 16.09344 0 0
12:55 pm 12:55 Sunny 74 23.4 53 11.6 48 48 S 16 26 29.94 1014 10 16.09344 0 0
1:15 pm 13:15 Sunny 76 24.7 55 12.9 48 48 S 13 20 29.88 1012 10 16.09344 0 0
1:35 pm 13:35 Sunny 76 24.6 55 12.6 47 47 S 18 30 29.88 1012 10 16.09344 0 0
1:55 pm 13:55 Sunny 77 25.2 55 12.7 46 46 S 21 33 29.88 1012 10 16.09344 0 0
2:15 pm 14:15 Sunny 78 25.6 55 12.6 44 44 S 18 30 29.85 1011 10 16.09344 0 0
2:35 pm 14:35 Sunny 77 25.2 55 12.6 46 46 S 16 26 29.85 1011 10 16.09344 0 0
2:55 pm 14:55 Sunny 79 25.9 55 12.6 44 44 S 17 28 29.85 1011 10 16.09344 0 0
3:15 pm 15:15 Partly Cloudy 79 26.1 55 12.8 44 44 S 20 31 29.83 1010 10 16.09344 0 0
3:35 pm 15:35 Partly Cloudy 79 26 55 12.6 43 43 S 24 39 29.83 1010 10 16.09344 0 0
3:55 pm 15:55 Partly Cloudy 78 25.6 54 12.1 43 43 S 17 28 29.83 1010 10 16.09344 0 0
4:15 pm 16:15 Partly Cloudy 79 26.2 55 12.7 43 43 SSW 21 33 29.83 1010 10 16.09344 0 0
4:35 pm 16:35 Partly Cloudy 79 26.2 55 12.9 44 44 S 22 35 29.77 1008 10 16.09344 0 0
4:55 pm 16:55 Partly Cloudy 80 26.5 55 13 43 43 S 23 37 29.77 1008 10 16.09344 0 0
5:15 pm 17:15 Partly Cloudy 79 26.2 55 12.9 44 44 S 22 35 29.77 1008 10 16.09344 0 0
5:35 pm 17:35 Sunny 78 25.7 55 12.7 45 45 S 20 31 29.8 1009 10 16.09344 0 0
5:55 pm 17:55 Sunny 78 25.7 55 13 45 45 S 24 39 29.8 1009 10 16.09344 0 0
6:15 pm 18:15 Sunny 78 25.6 55 12.8 45 45 S 20 31 29.77 1008 10 16.09344 0 0
6:35 pm 18:35 Sunny 78 25.3 55 12.7 46 46 S 21 33 29.77 1008 10 16.09344 0 0
6:55 pm 18:55 Sunny 77 24.9 55 12.6 46 46 S 16 26 29.77 1008 10 16.09344 0 0
7:15 pm 19:15 Sunny 76 24.4 55 12.6 48 48 S 20 31 29.77 1008 10 16.09344 0 0
7:35 pm 19:35 Sunny 75 23.7 54 12.3 49 49 S 18 30 29.77 1008 10 16.09344 0 0
7:55 pm 19:55 Sunny 74 23.1 54 12.3 51 51 S 20 31 29.74 1007 10 16.09344 0 0
8:15 pm 20:15 Sunny 73 22.9 54 12.2 51 51 SSE 15 24 29.74 1007 10 16.09344 0 0
8:35 pm 20:35 Sunny 73 22.5 53 11.8 51 51 SSE 18 30 29.74 1007 10 16.09344 0 0
8:55 pm 20:55 Sunny 71 21.8 53 11.7 53 53 SSE 18 30 29.77 1008 10 16.09344 0 0
9:15 pm 21:15 Clear 70 21 53 11.5 55 55 SSE 16 26 29.77 1008 10 16.09344 0 0
9:35 pm 21:35 Clear 69 20.6 52 11.1 55 55 SSE 20 31 29.77 1008 10 16.09344 0 0
9:55 pm 21:55 Clear 68 20.2 52 11 56 56 SE 17 28 29.77 1008 10 16.09344 0 0
10:15 pm 22:15 Clear 68 19.9 51 10.6 55 55 SSE 15 24 29.77 1008 10 16.09344 0 0
10:35 pm 22:35 Clear 67 19.5 51 10.5 56 56 SSE 14 22 29.8 1009 10 16.09344 0 0
10:55 pm 22:55 Clear 67 19.2 51 10.7 58 58 SSE 16 26 29.8 1009 10 16.09344 0 0
11:15 pm 23:15 Clear 66 19 52 10.9 60 60 SSE 15 24 29.8 1009 10 16.09344 0 0
11:35 pm 23:35 Clear 66 18.9 52 11.1 61 61 SSE 16 26 29.8 1009 10 16.09344 0 0
11:55 pm 23:55 Mostly Cloudy with Light Rain 65 18.5 53 11.6 64 64 SSE 16 26 29.83 1010 10 16.09344 0 0

Powered by AerisWeather